Location: ??????
(30.5519°N, 47.7720°E)
Time: 16:37:29
(UTC+00:00)

Daily predictions for brighter satellites

Satellite Brightness Start Highest point End
(mag) Time Altitude Azimuth Time Altitude Azimuth Time Altitude Azimuth
NOAA 11 4.3 14:34:48 10° SSE 14:40:18 86° ENE 14:45:49 10° NNW
FengYun 1-2 T 4.3 14:36:22 10° SSE 14:41:55 84° ENE 14:47:31 10° N
Cosmos 1937 Rocket 4.2 14:37:40 10° SSE 14:42:22 33° E 14:47:06 10° NE
CZ-4 R/B 2.9 14:39:52 10° ESE 14:42:26 16° ENE 14:45:00 10° NNE
Cosmos 1602 Rocket 4.2 14:40:06 10° SSE 14:44:00 34° E 14:47:56 10° NNE
Okean O Rocket 1.9 14:42:18 10° S 14:46:44 78° WSW 14:51:10 10° NNW
ERS-2 2.6 14:45:11 10° NNE 14:48:37 39° E 14:52:01 10° S
CZ-2C R/B 3.6 14:44:12 10° SE 14:49:00 38° ENE 14:54:05 10° N
Cosmos 1455 2.7 14:45:25 10° NNE 14:49:01 38° E 14:52:37 10° SSE
YAOGAN 1 4.0 14:46:30 10° ESE 14:49:23 18° ENE 14:52:17 10° NNE
BREEZE-M DEB (TANK) 2.7 14:48:14 10° NNW 14:50:32 29° NE 14:52:40 10° ESE
Okean-O 3.9 14:47:58 10° ESE 14:51:09 20° ENE 14:54:20 10° NNE
H-2A R/B 4.1 14:49:21 10° NNW 14:53:06 29° WNW 14:56:46 10° SW
CZ-2C R/B 4.1 14:50:33 10° NE 14:54:15 18° E 14:57:58 10° SE
SJ 16-02 3.0 14:52:58 10° SW 14:57:01 36° WNW 15:01:05 10° N
NOSS 2-1 (C) 4.2 14:55:01 10° SW 14:58:27 40° WNW 15:01:35 10° NNE
Cosmos 1538 Rocket 4.2 14:53:49 10° NNW 14:58:59 79° WSW 15:04:09 10° S
Meteor 2-1 Rocket 4.2 14:55:05 10° N 15:00:31 59° E 15:05:56 10° SSE
PSLV R/B 4.1 14:57:50 10° NNE 15:01:57 51° E 15:06:01 10° S
Cosmos 44 4.4 15:01:12 10° SW 15:05:34 41° WNW 15:10:16 10° NNE
Cosmos 1092 Rocket 3.9 15:00:21 10° S 15:06:30 69° E 15:12:37 10° N
Cosmos 1812 Rocket 4.2 15:06:58 10° NNE 15:10:53 32° E 15:14:47 10° SE
Cosmos 1833 Rocket 4.4 15:09:45 10° NE 15:11:05 12° NE 15:11:05 12° NE
USA 267 4.0 15:07:08 13° ENE 15:12:10 33° SE 15:17:55 10° S
Cosmos 1703 3.3 15:08:54 10° S 15:12:46 80° W 15:16:39 10° N
Cosmos 990 Rocket 4.4 15:08:29 10° SSW 15:13:39 64° WNW 15:18:49 10° N
Aureole 1 4.3 15:10:51 10° N 15:13:54 59° ENE 15:17:31 10° SSE
CZ-4 R/B 4.3 15:14:49 10° SSE 15:18:55 77° ENE 15:23:03 10° N
SAR-Lupe-4 3.5 15:18:21 10° N 15:21:56 86° W 15:25:28 10° SSW
CZ-4B R/B 3.9 15:20:04 10° NNW 15:22:39 22° WNW 15:25:11 10° SW
Cosmos 1346 Rocket 3.2 15:23:30 10° SSE 15:27:08 38° E 15:29:03 23° NE
MOS 1 Rocket 4.4 15:27:30 10° N 15:31:30 40° WNW 15:35:34 10° SW
Cosmos 158 Rocket 4.2 15:29:31 10° NNW 15:34:55 79° WSW 15:40:17 10° S
Meteor 2-19 Rocket 4.4 15:28:56 10° S 15:35:01 68° E 15:41:08 10° NNE
Cosmos 44 Rocket 4.2 15:32:08 10° SSE 15:36:08 27° ESE 15:36:25 27° ESE
Helios 1A Rocket 3.1 15:32:35 10° SSE 15:36:32 47° ENE 15:40:31 10° N
Cosmos 2278 Rocket 2.1 15:35:48 10° SSW 15:41:28 82° ESE 15:46:34 13° NNE
CSL-04 Rocket 3.9 15:39:14 10° SE 15:44:20 46° ENE 15:49:31 10° N
Cosmos 1689 Rocket 4.1 15:44:03 10° NNW 15:46:31 27° WNW 15:48:58 10° SW
Hubble Space Telescope 1.4 15:47:57 10° W 15:51:57 48° SSW 15:53:07 36° SE
Meteor 1-11 4.4 15:48:36 10° SSW 15:54:19 75° W 15:59:59 10° N
BREEZE-M DEB (TANK) 3.8 15:55:21 10° SSW 15:56:38 18° S 15:56:38 18° S
Iridium 4 Rocket 3.7 15:53:16 10° N 15:58:34 69° W 16:03:23 10° S
Lacrosse 5 2.2 15:56:17 10° NW 16:01:16 63° SW 16:05:36 14° SSE
Aureole 3 Rocket 2.8 15:57:56 10° N 16:01:17 73° W 16:05:37 10° S
OAO 1 4.4 15:56:14 10° WNW 16:01:46 88° SSW 16:03:19 49° ESE
Cosmos 2292 Rocket 4.0 15:56:48 10° S 16:03:09 69° E 16:05:04 38° NNE
Meteor 2-15 4.3 15:59:50 10° N 16:06:00 80° E 16:12:08 10° S
Cosmos 1680 Rocket 4.1 16:01:08 10° NNW 16:06:15 58° WSW 16:11:19 10° S
H-2A R/B 2.4 16:01:52 10° S 16:06:45 62° W 16:11:46 10° NNW
Cosmos 1553 Rocket 3.9 16:01:15 10° N 16:07:36 66° E 16:13:49 10° SSE
Cosmos 1809 Rocket 4.5 16:02:08 10° SSE 16:08:00 53° E 16:08:43 50° ENE
GOES 2 Rocket 4.4 16:02:26 10° W 16:08:36 67° S 16:11:46 37° ESE
Cosmos 1655 Rocket 3.9 16:05:00 10° S 16:11:09 65° E 16:13:54 34° NNE
ARGOS 3.2 16:11:04 10° S 16:16:25 77° WSW 16:21:48 10° NNW
CZ-4 R/B 3.5 16:13:39 10° SSW 16:17:11 28° W 16:20:42 10° NW
Cosmos 2298 Rocket 3.8 16:12:47 10° S 16:18:01 77° ESE 16:18:01 77° ESE
YAOGAN 1 4.5 16:21:28 10° SSW 16:25:12 29° W 16:28:59 10° NW
ATLAS 2A CENTAUR R/B 4.3 15:51:41 10° SW 16:31:17 49° S 16:35:16 38° SE
CZ-2C R/B 3.6 16:29:19 10° N 16:34:39 47° WNW 16:39:59 10° SW
Sakura Rocket 4.0 16:31:13 10° WSW 16:37:17 58° SSW 16:37:17 58° SSW
NOSS 3-1 (C) 4.2 16:33:24 10° NNW 16:41:31 82° WSW 16:47:27 24° SSE
COSMOS 2406 4.3 16:48:39 10° NNW 16:52:13 38° NW 16:52:13 38° NW
USA 267 3.7 16:54:30 51° NNW 16:55:13 54° NW 17:01:32 10° WSW
Cosmos 1833 Rocket 4.4 16:50:45 10° NNW 16:52:53 24° NNW 16:52:53 24° NNW
USA 229 DEB 3.9 16:52:55 10° NNW 16:59:54 77° WNW 16:59:54 77° WNW
USA 229 3.9 16:53:01 10° NNW 16:59:52 75° NW 16:59:52 75° NW
NOSS 3-1 (A) 4.3 17:08:08 10° NNW 17:15:13 69° WNW 17:15:13 69° WNW
Milstar 3 4.0 17:23:21 10° WSW 17:28:11 36° SW 17:28:11 36° SW
